Regional Weather Roundup
Issued by NWS Kansas City/Pleasant Hill, MO

Home | Current Version | Previous Version | Text Only | Print | Product List | Glossary On
Versions: 1 2 3 4 5 6 7 8 9 10 11 12 13 14 15 16 17 18 19 20 21 22 23 24 25 26 27 28 29 30 31 32 33 34 35 36 37 38 39 40 41 42 43 44 45 46 47 48 49 50
000
ASUS43 KEAX 241510
RWREAX

WEATHER ROUNDUP FOR EASTERN KANSAS AND NORTHWEST MISSOURI
NATIONAL WEATHER SERVICE KANSAS CITY/PLEASANT HILL MO
1000 AM CDT WED MAY 24 2017

KSZ040-057-103>105-MOZ028-029-037-043-241600-
...KANSAS CITY METROPOLITAN AREA...

CITY           SKY/WX    TMP DP  RH WIND       PRES   REMARKS
K.C. INTL      CLOUDY    54  49  83 NW12      29.71S
K.C. DOWNTOWN  CLOUDY    56  50  80 NW10      29.70F
LEES SUMMIT    CLOUDY    52  51  97 NW9       29.71S
OLATHE - IXD   CLOUDY    55  50  83 NW14      29.73S
OLATHE - OJC   CLOUDY    53  50  89 NW12G22   29.71F
LAWRENCE       CLOUDY    57  51  80 NW17      29.73F

$$

MOZ001>008-011>017-020>025-030>033-038>040-044>046-053-054-241600-
...NORTHERN AND CENTRAL MISSOURI...

CITY           SKY/WX    TMP DP  RH WIND       PRES   REMARKS
ST. JOSEPH     CLOUDY    56  50  80 N17       29.72S
MOSBY          DRIZZLE   52  52 100 N5        29.70S
WARRENSBURG    CLOUDY    54  46  76 NW9       29.69F
WHITEMAN AFB   CLOUDY    56  52  88 NW12      29.67F
CLINTON        CLOUDY    54  48  82 NW9       29.70F
SEDALIA        CLOUDY    54  50  86 NW12      29.69S
WARSAW         NOT AVBL
CHILLICOTHE      N/A     57  50  77 N9        29.69S
KIRKSVILLE     CLOUDY    55  48  77 N8        29.66S

$$

MOZ041-047>049-056>058-063>065-088>090-097-241600-
...EASTERN AND SOUTHERN MISSOURI...

CITY           SKY/WX    TMP DP  RH WIND       PRES   REMARKS
ST. LOUIS INTL PTSUNNY   63  50  62 NW12      29.60S
SPIRIT OF STL  PTSUNNY   60  50  69 NW10      29.60S
COLUMBIA       MOSUNNY   57  49  74 W12       29.65S
JEFFERSON CITY MOSUNNY   59  48  67 W10       29.64F
ROLLA          PTSUNNY   57  50  77 NW10      29.63S
OSAGE BEACH    PTSUNNY   57  48  72 NW9       29.67S
SPRINGFIELD    MOSUNNY   56  47  71 NW10      29.69S
BRANSON        PTSUNNY   55  46  71 NW13      29.70S
JOPLIN         PTSUNNY   58  49  72 NW12      29.74F
WEST PLAINS    CLOUDY    57  47  69 NW8       29.65F

$$

IAZ060-094-KSZ022-034>040-054-083-096-NEZ052-066-093-241600-
...KANSAS...SOUTHEAST NEBRASKA AND IOWA...

CITY           SKY/WX    TMP DP  RH WIND       PRES   REMARKS
TOPEKA         CLOUDY    57  51  80 NW10      29.75F
MANHATTAN      MOSUNNY   59  48  67 N9        29.78F
EMPORIA        PTSUNNY   56  48  74 NW14      29.78S
CHANUTE        MOSUNNY   57  46  66 N14       29.76S
WICHITA        PTSUNNY   57  46  66 NW16      29.82S
OMAHA          MOSUNNY   57  48  72 N14       29.77S
LINCOLN        MOSUNNY   59  48  67 N10       29.80S
FALLS CITY     MOSUNNY   57  49  74 NW13G22   29.74S
LAMONI         LGT RAIN  53  51  93 N10       29.68R
DES MOINES     CLOUDY    55  50  83 N10       29.69S

$$




USA.gov is the U.S. government's official web portal to all federal, state and local government web resources and services.